Location: Unspecified
(43.4354°N, 0.0000°E)
Time: 12:50:17
(UTC+00:00)

Vanguard 2 Rocket - Pass Details

Date: 21 June 2019
Orbit: 554 x 3326 km, 32.9° (Epoch: 20 July)

Event Time Altitude Azimuth Distance (km) Brightness Sun altitude
Rises 02:50:28 0° 274° (W) 5,770 10.7 -12.7°
Reaches altitude 10° 02:54:05 10° 267° (W) 5,091 10.3 -12.3°
Maximum altitude 03:08:33 42° 204° (SSW) 3,964 9.7 -10.6°
Drops below altitude 10° 03:26:36 10° 142° (SE) 6,230 11.1 -8.3°
Sets 03:31:41 0° 136° (SE) 7,120 11.5 -7.6°
